Charlottesville, VA

12:19 AM EST on December 12, 2017 (GMT -0500)
Charlottesville-Albemarle

Weather History for KCHO - July, 2014

Change the Weather History Date:

Wednesday, July 30, 2014

  Actual Average Record
Temperature  
Mean Temperature 67 °F 75 °F  
Max Temperature 80 °F 86 °F 101 °F (1953)
Min Temperature 54 °F 65 °F 54 °F (2014)
Degree Days  
Heating Degree Days 0 0  
Month to date heating degree days 0 0  
Since 1 June heating degree days 2 11  
Since 1 July heating degree days 0 0  
Cooling Degree Days 2 10  
Month to date cooling degree days 299 317  
Year to date cooling degree days 687 622  
Since 1 June cooling degree days 571 536  
Growing Degree Days 17 (Base 50)    
Moisture  
Dew Point 54 °F    
Average Humidity 66    
Maximum Humidity 93    
Minimum Humidity 39    
Precipitation  
Precipitation 0.00 in 0.13 in 0.89 in (2016)
Month to date precipitation 3.05 4.18  
Year to date precipitation 24.17 24.38  
Sea Level Pressure  
Sea Level Pressure 30.06 in    
Wind  
Wind Speed 3 mph (SW)    
Max Wind Speed 9 mph    
Max Gust Speed 14 mph    
Visibility 10 miles    
Events      
T = Trace of Precipitation, MM = Missing Value Source: NWS Daily Summary

Daily Weather History Graph

Daily Weather History Graph

Search for Another Location

Airport or City:

Trip Planner

Search our weather history database for the weather conditions in past years. The results will help you decide how hot, cold, wet, or windy it might be!

Date:

Astronomy

Jul. 30, 2014 Rise Set
Actual Time 6:14 AM EDT 8:25 PM EDT
Civil Twilight 5:45 AM EDT 8:54 PM EDT
Nautical Twilight 5:09 AM EDT 9:30 PM EDT
Astronomical Twilight 4:29 AM EDT 10:09 PM EDT
Moon 9:40 AM EDT (7/30) 10:11 PM EDT (7/30)
Length of Visible Light 15h 09m
Length of Day
14h 10m
Waxing Crescent, 12% of the Moon is Illuminated
Jul 30
Waxing Crescent
Aug 3
First Quarter
Aug 10
Full
Aug 17
Last Quarter
Aug 25
New

Hourly Weather History & Observations

Time (EDT) Temp. Dew Point Humidity Pressure Visibility Wind Dir Wind Speed Gust Speed Precip Events Conditions
12:53 AM 62.1 °F 53.1 °F 72% 30.04 in 10.0 mi Calm Calm - N/A   Overcast
2:53 AM 57.9 °F 55.0 °F 90% 30.03 in 10.0 mi West 3.5 mph - N/A   Clear
3:53 AM 57.9 °F 54.0 °F 87% 30.04 in 10.0 mi West 3.5 mph - N/A   Mostly Cloudy
4:53 AM 55.9 °F 53.1 °F 90% 30.04 in 10.0 mi Calm Calm - N/A   Partly Cloudy
5:53 AM 55.0 °F 52.0 °F 89% 30.06 in 10.0 mi Calm Calm - N/A   Scattered Clouds
6:53 AM 55.0 °F 53.1 °F 93% 30.07 in 10.0 mi Calm Calm - N/A   Scattered Clouds
7:53 AM 59.0 °F 55.0 °F 87% 30.07 in 10.0 mi South 3.5 mph - N/A   Clear
8:53 AM 64.0 °F 55.9 °F 75% 30.09 in 10.0 mi Calm Calm - N/A   Clear
9:53 AM 68.0 °F 55.9 °F 65% 30.09 in 10.0 mi Calm Calm - N/A   Clear
10:53 AM 71.1 °F 54.0 °F 55% 30.09 in 10.0 mi Variable 3.5 mph - N/A   Clear
11:53 AM 73.0 °F 54.0 °F 51% 30.09 in 10.0 mi Variable 5.8 mph - N/A   Clear
1:53 PM 75.9 °F 53.1 °F 45% 30.06 in 10.0 mi SW 9.2 mph - N/A   Partly Cloudy
2:53 PM 77.0 °F 53.1 °F 43% 30.06 in 10.0 mi Variable 5.8 mph - N/A   Partly Cloudy
3:53 PM 79.0 °F 52.0 °F 39% 30.04 in 10.0 mi WNW 4.6 mph - N/A   Mostly Cloudy
4:53 PM 79.0 °F 54.0 °F 42% 30.03 in 10.0 mi North - - N/A   Scattered Clouds
5:53 PM 77.0 °F 54.0 °F 45% 30.02 in 10.0 mi Variable 3.5 mph - N/A   Partly Cloudy
6:53 PM 75.9 °F 54.0 °F 46% 30.03 in 10.0 mi SW 4.6 mph - N/A   Clear
8:53 PM 70.0 °F 57.0 °F 63% 30.05 in 10.0 mi SSE 5.8 mph - N/A   Clear
9:53 PM 68.0 °F 57.9 °F 70% 30.06 in 10.0 mi Calm Calm - N/A   Clear
10:53 PM 64.9 °F 57.9 °F 78% 30.06 in 10.0 mi Calm Calm - N/A   Clear